[[{"header":{"parameterUnit":"m.s-1","parameterCategory":1,"la1":30.2991,"la2":30.254,"lo1":-89.0895,"lo2":-89.0444,"dy":0.0017,"dx":0.0017,"nx":28,"ny":28,"refTime":"2024-11-22T09:00:00:Z","depth":0,"parameterNumber":2,"parameterNumberName":"U-component_of_WINDS"},"data":[0,0,0,0,0,0,0,0,0,0,0,0,0,0,0,0,0,0,0,0,0,0,0,0,0,0,0,0,0,0,0,0,0,0,0,0,0,0,0,0,0,0,0,0,0,0,0,0,0,0,0,0,0,0,0,0,0,0,-0.3875,-0.3876,0,-0.3926,-0.3927,-0.3927,-0.3896,-0.3894,-0.3893,-0.3891,-0.3946,-0.3949,-0.3952,0,0,0,0,0,0,0,0,0,0,0,0,0,-0.3753,-0.3755,-0.3875,-0.3876,-0.3877,-0.3926,-0.3927,-0.3927,-0.3896,-0.3894,-0.3892,-0.3891,-0.3945,-0.3949,-0.3952,0,0,0,0,0,0,0,0,0,0,0,0,0,-0.3805,-0.3756,-0.3875,-0.3867,-0.3867,-0.3926,-0.3927,-0.3927,-0.3896,-0.3894,-0.3892,-0.389,-0.3944,-0.3948,-0.3953,-0.4024,0,0,-0.3966,-0.3968,0,0,0,0,0,0,0,0,-0.3802,-0.381,-0.3868,-0.3868,-0.3867,-0.3902,-0.3903,-0.396,-0.3897,-0.3885,-0.3891,-0.3889,-0.3934,-0.3939,-0.3953,-0.4026,-0.4029,-0.3966,-0.3969,-0.3971,-0.3972,0,0,0,0,0,0,0,-0.3799,-0.3807,-0.3896,-0.3868,-0.3868,-0.3861,-0.3866,-0.3914,-0.3922,-0.3886,-0.3884,-0.389,-0.3933,-0.3949,-0.3954,-0.4029,-0.3966,-0.397,-0.3972,-0.3974,-0.4161,-0.4163,0,0,0,0,0,0,-0.3795,-0.3805,-0.3894,-0.3897,-0.3829,-0.3865,-0.3871,-0.3893,-0.3921,-0.3923,-0.3892,-0.3889,-0.3943,-0.3949,-0.3956,-0.404,-0.397,-0.3974,-0.3977,-0.4159,-0.4162,-0.4164,0,0,0,0,0,0,-0.3793,-0.3804,-0.3892,-0.385,-0.3861,-0.3869,-0.3895,-0.3896,-0.3911,-0.3925,-0.3927,-0.3907,-0.3941,-0.395,-0.4006,-0.4041,-0.3976,-0.398,-0.4156,-0.416,-0.4163,-0.4209,0,0,0,0,0,0,-0.379,-0.3803,-0.383,-0.3851,-0.3863,-0.3941,-0.3898,-0.3898,-0.3918,-0.3914,-0.394,-0.3942,-0.394,-0.4,-0.4011,-0.4046,-0.3984,-0.4153,-0.4157,-0.4162,-0.4204,-0.4214,-0.4222,0,0,0,0,0,-0.3785,-0.3842,-0.3832,-0.3843,-0.3897,-0.3943,-0.395,-0.3947,-0.3921,-0.3949,-0.3957,-0.3941,-0.4035,-0.4006,-0.4018,-0.4055,-0.4151,-0.4156,-0.4161,-0.42,-0.4212,-0.4221,0,0,0,0,0,0,-0.3827,-0.3845,-0.3833,-0.3899,-0.3919,-0.3938,-0.3973,-0.3959,-0.3989,-0.3984,-0.3979,-0.3985,-0.4044,-0.4055,-0.4022,-0.4124,-0.4089,-0.4097,-0.4115,-0.4126,-0.4134,-0.4131,-0.3987,0,0,0,0,0,-0.3843,-0.3879,-0.3893,-0.3949,-0.396,-0.3964,-0.3985,-0.398,-0.4002,-0.4011,-0.4023,-0.4046,-0.408,-0.4104,-0.4136,-0.4205,-0.421,-0.4236,-0.4245,-0.4252,-0.4259,-0.4295,-0.4307,-0.4182,-0.4182,-0.4182,0,0,-0.3879,-0.3893,-0.3916,-0.3958,-0.3973,-0.401,-0.3972,-0.4014,-0.4041,-0.4017,-0.4071,-0.4081,-0.4105,-0.4168,-0.4196,-0.4179,-0.4294,-0.4259,-0.4264,-0.4268,-0.4302,-0.4313,-0.4324,-0.4186,-0.4185,-0.4184,0,0,-0.3962,-0.3976,-0.4023,-0.4039,-0.4062,-0.4064,-0.4076,-0.4096,-0.4101,-0.4154,-0.4136,-0.4169,-0.4229,-0.4247,-0.4264,-0.435,-0.4335,-0.4361,-0.4406,-0.4441,-0.4451,-0.4459,-0.449,-0.4501,-0.4367,-0.4368,-0.4368,0,-0.4003,-0.4057,-0.405,-0.4092,-0.411,-0.4088,-0.4136,-0.4152,-0.4186,-0.4199,-0.4179,-0.4252,-0.4267,-0.4333,-0.4353,-0.4368,-0.4381,-0.4358,-0.445,-0.4458,-0.4466,-0.4495,-0.4507,-0.437,-0.437,-0.437,-0.437,0,-0.4106,-0.4144,-0.418,-0.421,-0.4233,-0.4278,-0.4277,-0.4301,-0.4293,-0.4297,-0.4351,-0.4368,-0.4403,-0.4417,-0.4412,-0.4482,-0.447,-0.445,-0.4415,-0.4481,-0.4508,-0.4519,-0.4375,-0.4374,-0.4373,-0.4372,0,0,-0.4219,-0.4243,-0.4256,-0.4269,-0.4292,-0.4321,-0.4364,-0.4397,-0.4417,-0.444,-0.4476,-0.4526,-0.4506,-0.4525,-0.4521,-0.4551,-0.4617,-0.4527,-0.4527,-0.4543,-0.4694,-0.4709,-0.4722,-0.4607,-0.4609,-0.461,-0.4692,0,-0.4303,-0.4378,-0.4371,-0.4442,-0.4476,-0.4454,-0.4492,-0.451,-0.4514,-0.4544,-0.4548,-0.4583,-0.4556,-0.4567,-0.4596,-0.4603,-0.4647,-0.4597,-0.464,-0.4642,-0.4635,-0.4736,-0.4753,-0.4829,-0.4702,-0.4704,-0.4705,0,-0.4412,-0.4437,-0.451,-0.4526,-0.454,-0.4574,-0.4602,-0.463,-0.465,-0.465,-0.467,-0.4659,-0.4702,-0.4665,-0.4724,-0.4689,-0.4706,-0.4712,-0.4715,-0.472,-0.4678,-0.4744,-0.4854,-0.4865,-0.4722,-0.4721,-0.4719,0,-0.4487,-0.4538,-0.4589,-0.46,-0.462,-0.4644,-0.4653,-0.467,-0.4689,-0.4713,-0.4725,-0.4755,-0.4772,-0.4795,-0.4792,-0.4765,-0.4851,-0.4814,-0.4853,-0.4853,-0.4874,-0.4873,-0.4988,-0.4884,-0.4884,-0.4884,-0.4883,0,-0.4582,-0.4628,-0.4622,-0.4653,-0.4703,-0.4695,-0.4745,-0.4751,-0.4766,-0.4798,-0.478,-0.4811,-0.4805,-0.4835,-0.4833,-0.4881,-0.4889,-0.4891,-0.489,-0.4892,-0.4892,-0.4904,-0.4899,-0.4887,-0.4886,-0.4885,-0.4885,0,-0.4674,-0.4672,-0.4726,-0.4738,-0.4742,-0.4779,-0.479,-0.4819,-0.482,-0.4861,-0.487,-0.4872,-0.4906,-0.4905,-0.4945,-0.4943,-0.5002,-0.4995,-0.4996,-0.4994,-0.5033,-0.5029,-0.5161,-0.5177,-0.5063,-0.5064,-0.5065,0,-0.4735,-0.477,-0.4785,-0.4804,-0.4815,-0.4846,-0.4865,-0.4857,-0.4878,-0.49,-0.4926,-0.4958,-0.4984,-0.5039,-0.5045,-0.5074,-0.5068,-0.5111,-0.5072,-0.5073,-0.5068,-0.5066,-0.5069,-0.512,-0.5121,-0.5122,-0.5123,0,-0.4844,-0.484,-0.4867,-0.4894,-0.4916,-0.4937,-0.4956,-0.4973,-0.4967,-0.499,-0.5024,-0.5043,-0.5082,-0.5114,-0.5141,-0.5151,-0.5136,-0.5135,-0.5145,-0.5149,-0.5147,-0.5148,-0.5017,-0.5132,-0.5131,-0.5131,-0.513,-0.513,-0.4922,-0.4951,-0.4966,-0.4996,-0.5009,-0.5026,-0.5053,-0.5057,-0.5085,-0.5115,-0.5108,-0.5146,-0.5162,-0.5197,-0.5209,-0.5238,-0.5222,-0.5238,-0.5242,-0.5246,-0.525,-0.5142,-0.5243,-0.5243,-0.5242,-0.5242,-0.5242,0,-0.5029,-0.5037,-0.5065,-0.5091,-0.5114,-0.5096,-0.5115,-0.5136,-0.5169,-0.5185,-0.5209,-0.5247,-0.5277,-0.5284,-0.5312,-0.5334,-0.5328,-0.5342,-0.5341,-0.5343,-0.5263,-0.525,-0.5346,-0.5346,-0.5346,-0.5346,-0.5346,-0.5346,-0.5088,-0.5135,-0.5133,-0.5186,-0.5193,-0.5229,-0.5241,-0.5257,-0.5269,-0.5312,-0.5336,-0.5339,-0.5351,-0.538,-0.5406,-0.5407,-0.5419,-0.5435,-0.5434,-0.5359,-0.5349,-0.5339,-0.5327,-0.5438,-0.5438,-0.5511,-0.5512,-0.5513]},{"header":{"parameterUnit":"m.s-1","parameterCategory":1,"la1":30.2991,"la2":30.254,"lo1":-89.0895,"lo2":-89.0444,"dy":0.0017,"dx":0.0017,"nx":28,"ny":28,"refTime":"2024-11-22T09:00:00:Z","depth":0,"parameterNumber":3,"parameterNumberName":"V-component_of_WINDS"},"data":[0,0,0,0,0,0,0,0,0,0,0,0,0,0,0,0,0,0,0,0,0,0,0,0,0,0,0,0,0,0,0,0,0,0,0,0,0,0,0,0,0,0,0,0,0,0,0,0,0,0,0,0,0,0,0,0,0,0,-5.0861,-5.0863,0,-5.0983,-5.0984,-5.0985,-5.0898,-5.0894,-5.0891,-5.0887,-5.1007,-5.1013,-5.102,0,0,0,0,0,0,0,0,0,0,0,0,0,-5.0549,-5.0555,-5.0861,-5.0863,-5.0864,-5.0982,-5.0984,-5.0986,-5.0899,-5.0894,-5.089,-5.0885,-5.1004,-5.1012,-5.1021,0,0,0,0,0,0,0,0,0,0,0,0,0,-5.0679,-5.0557,-5.0861,-5.0835,-5.0834,-5.0982,-5.0984,-5.0986,-5.09,-5.0894,-5.0888,-5.0883,-5.1002,-5.1012,-5.1022,-5.12,0,0,-5.1053,-5.1057,0,0,0,0,0,0,0,0,-5.0671,-5.069,-5.0838,-5.0837,-5.0836,-5.0919,-5.0918,-5.1058,-5.0901,-5.0875,-5.0887,-5.088,-5.0982,-5.0993,-5.1029,-5.1205,-5.1211,-5.1054,-5.106,-5.1064,-5.1067,0,0,0,0,0,0,0,-5.0662,-5.0684,-5.0909,-5.084,-5.0839,-5.0816,-5.0828,-5.0944,-5.0959,-5.0877,-5.0871,-5.0887,-5.098,-5.1019,-5.1031,-5.1212,-5.1053,-5.1062,-5.1069,-5.1073,-5.1538,-5.1544,0,0,0,0,0,0,-5.0657,-5.0678,-5.0905,-5.0913,-5.0738,-5.0826,-5.084,-5.0899,-5.0958,-5.0961,-5.0891,-5.0882,-5.1005,-5.1019,-5.1035,-5.1245,-5.1064,-5.1074,-5.1079,-5.1532,-5.1539,-5.1546,0,0,0,0,0,0,-5.065,-5.0678,-5.09,-5.0794,-5.082,-5.0838,-5.0905,-5.0904,-5.0943,-5.0969,-5.0971,-5.0928,-5.1001,-5.102,-5.1159,-5.1248,-5.1078,-5.1087,-5.1524,-5.1534,-5.1543,-5.167,0,0,0,0,0,0,-5.0642,-5.0676,-5.0746,-5.0796,-5.0826,-5.1025,-5.091,-5.0911,-5.0961,-5.095,-5.1004,-5.1007,-5.0998,-5.1144,-5.1169,-5.1259,-5.1095,-5.1516,-5.1529,-5.154,-5.1658,-5.1682,-5.1703,0,0,0,0,0,-5.0631,-5.0776,-5.075,-5.0777,-5.0914,-5.103,-5.1048,-5.1035,-5.0969,-5.1037,-5.1054,-5.1006,-5.1235,-5.1159,-5.1187,-5.1281,-5.1511,-5.1525,-5.1539,-5.1647,-5.1677,-5.1703,0,0,0,0,0,0,-5.0735,-5.0782,-5.0753,-5.092,-5.0972,-5.1016,-5.1102,-5.1067,-5.1138,-5.1125,-5.1104,-5.1117,-5.1262,-5.1285,-5.1201,-5.1455,-5.1362,-5.1382,-5.1435,-5.1464,-5.1486,-5.1477,-5.1104,0,0,0,0,0,-5.0777,-5.087,-5.0905,-5.1048,-5.1076,-5.1085,-5.1135,-5.1121,-5.1173,-5.1195,-5.1221,-5.1273,-5.1355,-5.1411,-5.1489,-5.166,-5.1669,-5.1738,-5.1761,-5.178,-5.1797,-5.1887,-5.1918,-5.1593,-5.1592,-5.1592,0,0,-5.0865,-5.0903,-5.0962,-5.107,-5.1109,-5.1203,-5.1104,-5.1208,-5.1277,-5.121,-5.1342,-5.1364,-5.1419,-5.1575,-5.1644,-5.1598,-5.1889,-5.1798,-5.1813,-5.182,-5.1905,-5.1936,-5.1963,-5.1602,-5.16,-5.1599,0,0,-5.1074,-5.1113,-5.1235,-5.1276,-5.1336,-5.1341,-5.137,-5.1419,-5.1431,-5.1564,-5.1515,-5.1595,-5.174,-5.1781,-5.1821,-5.2043,-5.2,-5.2069,-5.2188,-5.2276,-5.2301,-5.2324,-5.2401,-5.243,-5.2086,-5.2086,-5.2087,0,-5.1176,-5.1318,-5.1302,-5.141,-5.1458,-5.1402,-5.1524,-5.1564,-5.1646,-5.168,-5.1627,-5.1806,-5.184,-5.2003,-5.2057,-5.2091,-5.2122,-5.2062,-5.2299,-5.2322,-5.2343,-5.2416,-5.2446,-5.2094,-5.2093,-5.2092,-5.2092,0,-5.1439,-5.1538,-5.1629,-5.1711,-5.1769,-5.1884,-5.1883,-5.1943,-5.1923,-5.1933,-5.2067,-5.2105,-5.2189,-5.2227,-5.2208,-5.2387,-5.2356,-5.2302,-5.2208,-5.2382,-5.245,-5.2479,-5.2105,-5.2103,-5.21,-5.2098,0,0,-5.1718,-5.1788,-5.1822,-5.1857,-5.1919,-5.1994,-5.2104,-5.2188,-5.2239,-5.2297,-5.2387,-5.251,-5.246,-5.2505,-5.249,-5.2567,-5.2738,-5.2503,-5.2504,-5.2544,-5.2935,-5.2975,-5.3008,-5.2711,-5.2716,-5.272,-5.293,0,-5.1929,-5.2124,-5.2112,-5.2294,-5.2384,-5.2331,-5.2427,-5.2474,-5.2485,-5.2561,-5.2572,-5.2659,-5.2587,-5.2613,-5.2688,-5.2702,-5.2816,-5.2687,-5.2793,-5.2797,-5.278,-5.3044,-5.3087,-5.3283,-5.2957,-5.2961,-5.2964,0,-5.2202,-5.2269,-5.2461,-5.2507,-5.2544,-5.2631,-5.2705,-5.2779,-5.283,-5.2832,-5.2882,-5.2854,-5.2963,-5.2866,-5.3015,-5.2927,-5.2969,-5.2983,-5.299,-5.2999,-5.2891,-5.3058,-5.3345,-5.3374,-5.3007,-5.3004,-5.3,0,-5.2384,-5.2523,-5.2655,-5.2687,-5.2744,-5.2806,-5.2833,-5.2878,-5.2928,-5.2992,-5.3023,-5.3099,-5.314,-5.3198,-5.319,-5.3121,-5.3341,-5.3244,-5.3344,-5.3344,-5.3392,-5.3389,-5.3688,-5.3421,-5.3421,-5.342,-5.342,0,-5.262,-5.2739,-5.2737,-5.2819,-5.2949,-5.2933,-5.3062,-5.3081,-5.3122,-5.3204,-5.3162,-5.324,-5.3224,-5.3301,-5.3295,-5.3418,-5.3437,-5.344,-5.3437,-5.3444,-5.3443,-5.3471,-5.3456,-5.3428,-5.3426,-5.3425,-5.3424,0,-5.2846,-5.285,-5.299,-5.3033,-5.3046,-5.314,-5.3175,-5.3251,-5.3258,-5.3362,-5.3385,-5.3396,-5.3484,-5.3482,-5.3581,-5.3577,-5.3727,-5.3709,-5.3711,-5.3707,-5.3806,-5.3796,-5.4133,-5.4175,-5.3882,-5.3885,-5.3887,0,-5.2996,-5.3087,-5.3139,-5.3191,-5.3222,-5.3307,-5.3358,-5.3345,-5.3399,-5.3462,-5.353,-5.3614,-5.368,-5.3823,-5.3838,-5.3913,-5.3895,-5.4008,-5.3906,-5.3909,-5.3895,-5.389,-5.3897,-5.4028,-5.4031,-5.4034,-5.4036,0,-5.3262,-5.3259,-5.3335,-5.3411,-5.3473,-5.3532,-5.3587,-5.3631,-5.3624,-5.3686,-5.3776,-5.3828,-5.3929,-5.4012,-5.4084,-5.4108,-5.4071,-5.4068,-5.4094,-5.4102,-5.4099,-5.41,-5.3764,-5.406,-5.4058,-5.4056,-5.4054,-5.4054,-5.3454,-5.3531,-5.3579,-5.3664,-5.3703,-5.3755,-5.3827,-5.3843,-5.3918,-5.4001,-5.3988,-5.4088,-5.4133,-5.4226,-5.4257,-5.4333,-5.4293,-5.4332,-5.4342,-5.4352,-5.4362,-5.4087,-5.4346,-5.4345,-5.4345,-5.4344,-5.4344,0,-5.3716,-5.3744,-5.3823,-5.39,-5.3966,-5.3926,-5.3983,-5.4041,-5.413,-5.4176,-5.4242,-5.4344,-5.4424,-5.4445,-5.4522,-5.4578,-5.4563,-5.4599,-5.4594,-5.46,-5.4394,-5.4363,-5.461,-5.461,-5.461,-5.461,-5.461,-5.461,-5.386,-5.3988,-5.399,-5.4136,-5.4162,-5.4261,-5.4297,-5.4343,-5.4379,-5.4496,-5.4562,-5.4576,-5.4611,-5.469,-5.476,-5.4764,-5.4793,-5.4836,-5.4833,-5.4641,-5.4614,-5.4589,-5.4559,-5.4843,-5.4844,-5.5032,-5.5033,-5.5035]}]]